Home   Weather   Miramichi   Past weeks

Flag for Canada Past Weather in Miramichi, New Brunswick, Canada — Yesterday and Last 2 Weeks

Now
43 °F

Overcast.


Feels Like: 43 °F
Forecast: 38 / 57 °F
Wind: No wind

Location: Bathurst Airport

Current Time: Apr 28, 2017 at 1:13:10 pm

Latest Report: Apr 28, 2017 at 12:00 pm


Visibility: 12 mi

Pressure: 29.97 "Hg

Humidity: 93%

Dew Point: 41 °F

Location of MiramichiLocation

Past Weather in Miramichi — Graph

°F

Miramichi Temperature Yesterday

Maximum temperature yesterday: 41 °F (at 12:00 am)
Minimum temperature yesterday: 32 °F (at 8:04 pm)
Average temperature yesterday: 37 °F

High & Low Weather Summary for the Past Weeks

 TemperatureHumidityPressure
High54 °F (Apr 15, 2:36 pm)100% (Apr 15, 2:00 am)30.66 "Hg (Apr 15, 2:00 am)
Low19 °F (Apr 19, 4:00 am)21% (Apr 15, 12:00 pm)29.69 "Hg (Apr 16, 12:00 pm)
Average36 °F78%30.16 "Hg
* Reported Apr 13 11:00 am — Apr 28 11:46 am, Miramichi, Weather by CustomWeather, © 2017

Note: Actual official high and low records may vary slightly from our data, if they occured in-between our weather recording intervals... More about our weather records

Advertising

Miramichi Weather History for the Previous 24 Hours

Scroll right to see more
 ConditionsComfort  
Time TempWeatherWind HumidityBarometerVisibility
11:46 am
Fri, Apr 28
41 °FOvercast.2 mph93%29.98 "Hg12 mi
11:00 am39 °FLow clouds.No wind93%29.99 "Hg8 mi
10:00 am37 °FFog.5 mph100%30.01 "Hg5 mi
9:00 am36 °FFog.2 mph100%30.02 "Hg5 mi
8:00 am34 °FLow clouds.No wind100%30.01 "Hg10 mi
7:00 am34 °FDrizzle. Fog.3 mph100%30.02 "Hg3 mi
6:42 am34 °FDrizzle. Fog.5 mph100%30.03 "Hg3 mi
6:32 am34 °FDrizzle. Fog.3 mph100%30.03 "Hg2 mi
6:11 am34 °FDrizzle. Fog.3 mph100%30.02 "Hg1 mi
6:00 am34 °FDrizzle. Fog.5 mph100%30.03 "Hg2 mi
5:45 am34 °FDrizzle. Fog.3 mph100%30.03 "Hg2 mi
5:00 am34 °FLight rain. Fog.5 mph100%30.05 "Hg1 mi
4:00 am32 °FDrizzle. Fog.9 mph100%30.06 "Hg1 mi
3:00 am32 °FDrizzle. Fog.10 mph100%30.07 "Hg1 mi
2:07 am32 °FDrizzle. Fog.6 mph100%30.09 "Hg1 mi
1:35 am32 °FDrizzle. Ice fog.5 mph100%30.10 "Hg1 mi
1:16 am32 °FLight rain. Fog.6 mph100%30.10 "Hg1 mi
1:00 am32 °FDrizzle. Fog.7 mph100%30.10 "Hg0 mi
12:00 am32 °FDrizzle. Fog.7 mph100%30.11 "Hg0 mi
11:00 pm
Thu, Apr 27
32 °FDrizzle. Fog.8 mph100%30.13 "Hg0 mi
10:00 pm32 °FDrizzle. Fog.7 mph100%30.13 "Hg1 mi
9:00 pm32 °FDrizzle. Fog.7 mph100%30.13 "Hg1 mi
8:42 pm32 °FDrizzle. Ice fog.7 mph100%30.13 "Hg1 mi
8:04 pm32 °FDrizzle. Ice fog.9 mph100%30.14 "Hg6 mi
7:40 pm34 °FLight rain. More clouds than sun.9 mph100%30.14 "Hg8 mi
7:32 pm34 °FDrizzle. Fog.8 mph100%30.14 "Hg1 mi
7:00 pm34 °FDrizzle. Fog.8 mph100%30.15 "Hg1 mi
6:38 pm34 °FDrizzle. Fog.8 mph100%30.14 "Hg1 mi
6:00 pm34 °FDrizzle. Fog.8 mph100%30.15 "Hg1 mi
5:00 pm34 °FDrizzle. Fog.13 mph100%30.16 "Hg1 mi
4:00 pm34 °FDrizzle. Fog.14 mph100%30.16 "Hg1 mi
3:00 pm34 °FDrizzle. Fog.9 mph100%30.16 "Hg1 mi
2:00 pm36 °FDrizzle. Fog.12 mph100%30.16 "Hg1 mi
1:00 pm36 °FDrizzle. Fog.12 mph100%30.16 "Hg1 mi
Weather by CustomWeather, © 2017

See weather overviewHow to use our weather pages